SCP
2 4 4 3 3 1 0 0 0 0 0 0 0 0 0 0 0 0 0 0 0 0
5 4 3 2 4 3 1 0 0 0 0 0 0 0 0 0 0 0 0 0 0 0
5 4 4 4 2 3 2 1 0 0 0 0 0 0 0 0 0 0 0 0 0 0
4 4 5 4 4 3 2 1 1 0 0 0 0 0 0 0 0 0 0 0 0 0
5 4 4 4 4 3 2 1 1 0 0 0 0 0 0 0 0 0 0 0 0 0
3 3 2 2 2 1 0 0 0 0 0 0 0 0 0 0 0 0 0 0 0 0
1 1 1 1 1 1 1 1 0 0 0 0 0 0 0 0 0 0 0 0 0 0
0 0 1 1 1 1 1 0 0 0 0 0 0 0 0 0 0 0 0 0 0 0
-1 -0 1 1 1 1 1 1 0 0 0 0 0 0 0 0 0 0 0 0 0 0
-0 -0 0 0 1 1 1 0 0 0 0 0 0 0 0 0 0 0 0 0 0 0
0 0 1 0 1 0 1 0 0 0 0 0 0 0 0 0 0 0 0 0 0 0
0 1 1 1 0 0 0 0 0 0 0 0 0 0 0 0 0 0 0 0 0 0
0 0 1 1 0 0 0 0 0 0 0 0 0 0 0 0 0 0 0 0 0 0
0 0 0 1 2 1 0 0 0 0 0 0 0 0 0 0 0 0 0 0 0 0
Wind_Speed_500mb
126 127 126 121 111 97 101 80 79 71 44 36 51 70 65 60 56 52 47 43 38 31
130 132 133 129 119 111 92 99 82 83 61 46 58 69 73 67 63 59 53 47 40 32
125 130 132 130 125 118 104 93 84 93 82 61 72 73 77 71 69 65 60 53 47 40
102 115 121 127 124 117 106 92 84 96 94 71 75 79 79 75 73 68 60 55 49 42
88 102 111 118 117 114 105 93 83 94 100 74 81 84 84 81 76 70 65 55 51 44
78 92 101 104 103 104 104 95 87 91 99 85 84 85 85 81 77 69 63 60 59 49
69 79 86 89 91 99 103 97 91 87 95 92 84 83 85 84 79 75 71 66 59 52
67 71 75 82 85 89 98 97 92 87 95 89 88 83 87 88 81 80 76 68 61 54
56 69 77 77 78 86 95 95 91 93 98 93 93 84 79 85 85 83 77 75 74 61
45 54 64 69 71 81 93 96 98 91 96 95 91 85 81 87 87 89 86 82 77 68
41 46 52 64 68 77 88 96 98 94 98 93 80 100 89 96 91 91 90 91 89 77
44 50 51 58 64 67 75 87 94 91 94 84 87 93 90 93 97 93 97 97 91 71
43 55 54 57 50 57 67 78 88 83 97 91 88 78 84 96 102 99 100 99 85 64
51 47 61 64 65 63 69 68 80 89 87 74 65 54 83 98 104 97 101 104 85 68
Wind_Direction_500mb
243 243 243 244 241 234 232 232 242 227 201 289 239 225 227 224 222 219 216 215 214 210
242 243 245 244 241 239 236 236 238 228 218 239 239 222 222 223 221 219 217 215 212 209
247 243 243 244 241 238 234 237 235 228 228 237 229 220 217 221 220 220 216 213 209 209
250 246 243 244 242 238 235 235 233 236 232 236 221 219 216 220 221 218 217 214 210 211
252 247 245 245 244 239 234 233 236 234 230 230 218 219 217 219 220 219 218 215 212 212
255 248 248 249 247 239 232 231 233 230 228 224 219 220 219 219 222 221 221 220 217 217
262 256 252 253 249 241 232 229 231 229 225 223 220 221 217 218 220 224 221 219 218 217
275 265 258 253 249 240 235 233 231 228 225 223 221 219 217 219 222 222 221 216 214 215
269 271 263 256 248 240 233 232 232 230 227 223 219 217 219 223 224 224 220 215 211 207
264 259 259 257 253 245 237 233 233 232 229 226 222 219 210 217 224 224 220 218 212 207
289 258 257 260 259 249 241 235 235 231 228 229 233 225 213 212 212 221 222 218 214 208
279 268 269 264 263 257 245 238 233 233 232 226 226 226 222 214 213 216 219 210 206 202
286 262 259 262 259 257 253 242 235 229 225 222 222 227 225 222 218 214 210 200 201 201
303 276 260 264 256 254 245 238 219 216 216 217 230 229 228 228 224 220 210 202 193 201
Wind_Speed_850mb
126 127 126 121 111 97 101 80 79 71 44 36 51 70 65 60 56 52 47 43 38 31
130 132 133 129 119 111 92 99 82 83 61 46 58 69 73 67 63 59 53 47 40 32
125 130 132 130 125 118 104 93 84 93 82 61 72 73 77 71 69 65 60 53 47 40
102 115 121 127 124 117 106 92 84 96 94 71 75 79 79 75 73 68 60 55 49 42
88 102 111 118 117 114 105 93 83 94 100 74 81 84 84 81 76 70 65 55 51 44
78 92 101 104 103 104 104 95 87 91 99 85 84 85 85 81 77 69 63 60 59 49
69 79 86 89 91 99 103 97 91 87 95 92 84 83 85 84 79 75 71 66 59 52
67 71 75 82 85 89 98 97 92 87 95 89 88 83 87 88 81 80 76 68 61 54
56 69 77 77 78 86 95 95 91 93 98 93 93 84 79 85 85 83 77 75 74 61
45 54 64 69 71 81 93 96 98 91 96 95 91 85 81 87 87 89 86 82 77 68
41 46 52 64 68 77 88 96 98 94 98 93 80 100 89 96 91 91 90 91 89 77
44 50 51 58 64 67 75 87 94 91 94 84 87 93 90 93 97 93 97 97 91 71
43 55 54 57 50 57 67 78 88 83 97 91 88 78 84 96 102 99 100 99 85 64
51 47 61 64 65 63 69 68 80 89 87 74 65 54 83 98 104 97 101 104 85 68
Wind_Direction_850mb
243 243 243 244 241 234 232 232 242 227 201 289 239 225 227 224 222 219 216 215 214 210
242 243 245 244 241 239 236 236 238 228 218 239 239 222 222 223 221 219 217 215 212 209
247 243 243 244 241 238 234 237 235 228 228 237 229 220 217 221 220 220 216 213 209 209
250 246 243 244 242 238 235 235 233 236 232 236 221 219 216 220 221 218 217 214 210 211
252 247 245 245 244 239 234 233 236 234 230 230 218 219 217 219 220 219 218 215 212 212
255 248 248 249 247 239 232 231 233 230 228 224 219 220 219 219 222 221 221 220 217 217
262 256 252 253 249 241 232 229 231 229 225 223 220 221 217 218 220 224 221 219 218 217
275 265 258 253 249 240 235 233 231 228 225 223 221 219 217 219 222 222 221 216 214 215
269 271 263 256 248 240 233 232 232 230 227 223 219 217 219 223 224 224 220 215 211 207
264 259 259 257 253 245 237 233 233 232 229 226 222 219 210 217 224 224 220 218 212 207
289 258 257 260 259 249 241 235 235 231 228 229 233 225 213 212 212 221 222 218 214 208
279 268 269 264 263 257 245 238 233 233 232 226 226 226 222 214 213 216 219 210 206 202
286 262 259 262 259 257 253 242 235 229 225 222 222 227 225 222 218 214 210 200 201 201
303 276 260 264 256 254 245 238 219 216 216 217 230 229 228 228 224 220 210 202 193 201